Snowfall_Accumulation
0.0 0.0 0.0 0.0 0.0 0.0 0.0 0.0 8.9 0.0 0.0 5.9 9.6 13.8 1.9 0.0 0.0 0.0 0.1 0.3 0.6 2.7 1.8 5.1 6.8 5.7 3.5 1.0 4.2 2.9 0.6 1.1 1.1 0.4 0.0 0.0 0.0 0.7 0.7 7.8 4.8 4.0 5.3 1.3
0.0 0.0 0.0 0.0 0.0 0.0 0.0 8.0 1.9 0.0 0.0 28.0 14.7 0.4 0.2 0.0 0.0 0.0 0.2 0.5 0.1 0.0 1.4 4.0 2.1 2.0 0.2 0.0 4.0 4.0 1.4 1.3 1.6 3.9 0.0 0.0 0.3 0.1 0.0 0.7 1.7 3.8 6.1 0.0
0.0 0.0 0.0 0.0 0.0 0.0 0.0 8.6 31.1 0.0 0.0 0.2 5.3 4.0 1.5 0.5 0.0 0.0 0.0 0.2 0.1 0.8 1.4 1.2 0.8 0.1 0.1 0.0 0.8 0.0 0.1 2.0 0.6 0.9 1.0 0.7 1.3 0.0 0.2 1.8 7.4 0.2 0.3 0.0
0.0 0.0 0.0 0.0 0.0 0.0 0.0 6.9 19.7 10.4 35.4 24.7 14.2 12.5 11.4 8.1 7.5 2.6 0.9 2.4 2.7 5.3 8.3 1.6 0.9 0.1 0.2 0.0 0.0 1.8 1.0 6.2 0.0 0.0 0.1 1.0 1.0 0.4 0.1 2.2 0.2 3.1 0.0 0.1
0.0 0.0 0.0 0.0 0.0 0.0 0.0 5.7 8.6 7.8 16.0 13.9 14.9 14.3 17.7 10.0 8.3 8.9 7.3 9.3 7.5 7.6 14.1 9.0 11.1 6.6 3.6 3.2 0.5 1.5 3.4 11.5 4.0 2.4 0.0 0.4 1.4 0.2 0.1 0.1 0.0 0.0 0.1 0.2
0.0 0.0 0.0 0.0 0.0 0.0 0.0 0.0 0.0 5.1 7.7 12.4 16.3 16.7 9.4 7.6 4.3 2.7 2.6 5.0 6.8 5.9 4.3 2.4 1.0 0.7 0.6 2.2 5.4 7.2 14.5 17.4 17.5 15.2 1.0 2.5 3.9 0.1 0.1 0.1 0.9 1.2 2.5 3.7
0.0 0.0 0.0 0.0 0.0 0.0 0.0 0.0 0.0 12.0 20.7 10.1 11.2 9.1 5.4 4.8 3.4 9.0 2.3 2.4 6.8 0.1 0.1 0.1 0.2 0.2 0.2 0.6 0.3 0.6 10.7 14.7 23.8 22.4 8.6 29.1 0.4 0.1 0.1 0.7 2.2 1.7 1.2 0.4
0.0 0.0 0.0 0.0 0.0 0.0 0.0 0.0 0.1 10.7 22.8 5.6 5.4 6.2 6.1 3.4 2.1 5.4 3.5 1.0 0.6 0.2 0.7 8.3 8.2 4.1 5.2 2.6 1.4 2.1 3.2 16.5 38.7 31.1 18.8 4.2 1.0 0.5 1.0 2.0 3.0 2.0 1.5 0.4
0.0 0.0 0.0 0.0 0.0 0.0 0.0 0.0 0.0 2.2 23.1 9.0 3.9 5.4 5.5 9.6 12.3 10.3 3.9 0.0 0.0 0.3 5.7 16.0 20.6 8.3 2.9 2.5 2.4 1.5 4.0 10.8 40.8 38.8 39.0 16.3 1.3 1.4 0.8 0.7 5.6 1.2 1.3 1.0
0.0 0.0 0.0 0.0 0.0 0.0 0.0 0.0 0.0 0.4 24.2 2.6 2.3 6.4 10.0 7.2 10.5 14.2 6.1 5.2 3.6 1.0 15.8 25.2 16.4 6.9 3.1 5.7 2.5 3.0 7.4 15.7 38.8 31.2 49.0 16.6 3.0 1.0 0.7 7.0 3.5 1.0 2.0 1.9
0.0 0.0 0.0 0.0 0.0 0.0 0.0 0.0 0.0 0.0 11.9 3.1 2.0 2.9 6.8 8.5 9.5 17.0 10.4 12.5 12.3 17.0 27.9 21.4 12.3 11.2 5.9 4.6 3.9 4.0 5.7 9.3 10.0 17.3 35.9 17.8 1.1 0.3 2.0 4.9 2.8 2.3 1.2 1.7
0.0 0.0 0.0 0.0 0.0 0.0 0.0 0.0 0.0 0.0 6.6 8.2 0.0 0.0 0.0 3.9 5.0 12.3 15.1 13.6 9.6 9.4 18.5 16.9 11.5 9.7 7.8 3.9 7.5 2.5 7.7 8.0 8.6 6.5 5.7 3.5 4.4 4.1 5.4 3.6 2.1 1.0 0.5 0.2
0.0 0.0 0.0 0.0 0.0 0.0 0.0 0.0 0.0 0.8 15.2 9.7 2.5 2.7 0.5 0.0 1.2 0.5 18.0 9.8 6.6 8.9 5.6 14.7 14.7 20.0 8.4 9.6 6.7 3.8 2.5 5.7 10.7 8.4 5.7 5.6 5.1 3.4 2.5 1.5 1.1 0.4 0.4 0.6
0.0 0.0 0.0 0.0 0.0 0.0 0.0 0.0 0.0 0.0 13.7 30.0 6.1 0.0 0.8 0.0 0.0 0.4 1.2 4.3 6.1 9.3 10.3 27.3 26.0 20.7 4.5 4.8 3.7 4.6 4.1 2.5 4.1 7.0 7.4 4.4 4.1 2.0 2.1 1.3 0.1 0.1 0.0 0.2
0.0 0.0 0.0 0.0 0.0 0.0 0.0 0.0 0.0 0.0 2.4 28.0 8.5 1.9 1.0 0.0 0.0 0.8 0.9 2.3 7.4 17.3 29.3 35.5 26.1 9.4 12.1 10.9 8.8 9.9 5.9 6.6 5.0 3.9 3.7 6.1 2.3 2.4 0.4 2.2 1.1 0.5 0.3 0.0
0.0 0.0 0.0 0.0 0.0 0.0 0.0 12.0 0.0 0.0 0.0 34.8 31.2 5.3 2.8 0.6 0.0 0.3 2.1 2.3 8.8 15.1 23.2 24.2 14.6 8.8 14.3 30.6 14.4 7.1 7.5 8.6 9.7 8.9 5.3 6.0 3.0 1.9 1.0 2.9 2.1 1.8 0.9 0.3
0.0 0.0 0.0 0.0 0.0 0.0 3.9 5.2 0.1 0.0 0.0 36.8 36.9 16.6 4.6 2.2 1.2 2.1 3.0 3.9 8.6 12.1 20.8 20.3 12.8 9.4 18.8 32.4 14.4 6.4 6.2 7.2 8.4 9.3 6.8 6.2 5.4 5.7 2.4 2.7 3.5 4.3 3.1 1.4
0.0 0.0 0.0 0.0 0.0 0.0 4.2 0.4 0.0 0.0 8.2 24.1 45.7 16.7 4.4 2.4 6.0 6.1 3.4 7.7 11.2 13.7 14.2 9.3 5.0 8.2 18.0 21.9 6.5 6.8 6.9 6.6 6.0 6.3 6.4 7.5 7.8 7.3 6.6 5.7 5.0 5.7 6.6 7.0
0.0 0.0 0.0 0.0 1.9 17.5 11.5 0.0 1.6 0.0 8.0 32.3 24.6 10.7 7.0 1.4 4.2 4.6 6.0 7.4 20.1 8.7 12.1 5.3 4.1 8.2 12.8 6.7 7.0 7.0 7.0 8.4 8.5 7.7 7.2 7.5 6.5 6.6 6.7 6.5 6.5 5.6 7.7 7.8
0.0 0.0 16.7 40.5 16.7 0.0 1.1 8.8 23.3 28.7 26.9 23.8 16.4 4.4 7.2 2.5 3.8 7.7 5.3 9.2 9.6 13.8 4.8 2.2 12.0 3.8 4.8 6.3 7.9 8.7 9.1 8.6 8.9 9.4 9.5 7.3 7.5 6.2 7.6 7.9 8.1 7.0 7.6 7.8
1.4 32.1 32.2 11.7 0.3 5.4 15.2 44.9 40.7 27.3 23.2 6.5 5.5 4.4 6.0 2.4 9.8 9.7 7.9 16.4 10.5 17.1 5.9 7.3 7.8 7.2 10.9 9.2 9.5 9.7 8.7 9.2 10.2 10.8 11.7 12.0 11.8 11.3 9.0 7.7 6.9 5.8 6.0 6.3
0.1 3.9 5.1 10.8 18.4 40.2 44.8 37.1 17.3 6.3 3.7 2.0 7.0 6.5 3.4 5.9 4.9 14.1 14.8 17.9 16.4 15.8 7.5 19.0 9.7 11.3 6.9 8.7 11.5 10.0 8.6 9.2 9.4 10.4 12.2 12.2 11.4 11.8 11.9 10.0 9.3 8.1 7.1 7.0
7.8 26.0 47.8 43.9 45.1 51.9 34.0 14.1 8.1 4.0 4.4 4.8 7.9 7.7 7.6 10.8 13.1 23.2 18.1 22.9 13.2 2.0 12.3 8.8 9.7 6.8 7.6 9.5 10.0 9.0 9.0 10.7 10.3 10.3 10.9 11.9 11.9 11.2 12.6 12.4 9.2 8.4 8.3 8.3
36.4 57.4 66.4 38.0 38.2 11.9 7.2 6.8 6.2 3.8 2.5 2.2 4.7 7.1 11.5 11.3 23.3 24.3 27.8 14.9 9.4 16.7 12.6 8.8 5.3 6.5 8.2 8.3 7.8 8.3 8.5 9.7 10.6 11.7 11.2 12.4 12.9 12.1 10.7 10.0 8.7 8.3 6.9 6.4
55.5 45.2 39.4 22.6 7.5 7.1 9.1 7.3 4.8 4.6 4.7 8.1 9.8 13.5 13.5 15.8 34.0 23.1 15.9 19.6 15.5 12.9 10.0 6.0 5.0 6.3 6.9 6.7 6.5 7.9 8.7 10.3 10.5 10.0 9.3 10.4 10.3 11.0 9.5 8.0 8.4 7.5 6.8 5.5
48.4 37.5 15.9 3.3 3.8 5.5 6.5 8.2 8.6 7.6 10.2 14.1 23.5 32.6 30.5 22.0 23.4 22.9 13.0 14.6 9.2 9.1 7.3 6.9 6.5 5.8 5.3 6.0 6.1 7.4 9.3 9.7 11.5 12.3 9.1 8.3 10.4 11.0 9.7 7.7 7.1 6.8 6.4 6.6
49.4 21.2 4.1 5.1 6.4 9.8 9.9 10.0 10.4 11.1 18.7 28.9 37.1 42.4 22.6 23.0 20.4 13.0 7.9 9.4 8.0 9.5 8.8 6.8 6.4 7.4 7.2 6.3 5.7 6.3 7.4 7.4 9.6 13.0 9.9 9.8 11.2 12.1 10.7 8.9 7.2 6.4 6.5 7.8